Temperature
7 9 9 9 8 9 9 9 10 9 7 6 7 7 7 6 4 4 3 3 2 1 1 2 2 2 3 3 3 3 3 3 3 3 3 4 4 4 4 4 4 4 4 4
9 8 7 7 7 7 8 8 9 8 5 5 6 6 7 5 4 3 3 2 2 1 1 1 1 2 2 3 3 3 3 3 3 3 3 3 3 3 3 3 3 3 3 3
8 7 5 6 6 7 7 7 8 7 6 5 5 7 6 5 3 2 1 1 1 0 0 0 1 1 1 2 2 2 2 2 2 2 2 2 2 2 2 3 3 3 3 3
7 5 5 6 6 6 7 6 5 5 6 7 5 8 7 5 4 3 2 1 0 -0 -0 -0 -0 0 1 1 1 1 1 1 1 1 1 1 1 1 2 2 2 2 2 2
6 4 4 5 5 5 5 4 4 4 5 5 5 6 8 4 4 4 2 1 0 -0 -1 -1 -0 -0 -0 0 0 0 0 1 1 1 1 1 1 1 1 1 1 1 1 2
4 3 3 4 3 3 3 3 3 4 5 6 5 6 8 6 4 3 2 1 -0 -1 -1 -1 -1 -1 -1 -0 -0 -0 -0 -0 -0 0 0 0 0 0 -0 0 0 0 1 1
5 4 2 2 3 3 3 5 6 6 6 7 3 4 6 4 2 1 1 -0 -1 -1 -1 -1 -1 -1 -1 -1 -1 -1 -1 -1 -1 -1 -0 -0 -1 -1 -1 -1 -1 -1 -0 -0
6 6 3 2 3 3 3 4 6 7 7 7 3 4 5 2 0 -1 -1 -1 -1 -1 -2 -2 -2 -2 -2 -2 -2 -1 -1 -1 -1 -1 -1 -1 -1 -1 -1 -1 -2 -2 -2 -1
6 5 2 1 1 2 3 4 3 4 3 4 5 4 3 1 0 -0 -1 -2 -2 -2 -2 -2 -2 -2 -2 -2 -2 -2 -2 -2 -2 -2 -2 -2 -2 -2 -2 -2 -2 -2 -2 -2
3 3 2 1 1 1 2 2 3 4 4 5 6 4 5 2 1 0 -0 -1 -2 -2 -2 -2 -3 -3 -3 -3 -3 -2 -2 -2 -2 -2 -2 -2 -3 -3 -3 -3 -3 -3 -3 -3
2 2 2 1 1 2 1 1 2 3 3 4 5 6 3 2 1 -0 -1 -2 -2 -2 -2 -3 -3 -3 -3 -3 -3 -3 -3 -3 -3 -3 -3 -3 -3 -3 -3 -3 -3 -3 -3 -3
1 2 2 2 -0 -1 0 1 1 2 2 1 3 4 1 0 -1 -1 -2 -3 -3 -3 -3 -3 -4 -4 -4 -4 -4 -4 -4 -4 -4 -4 -4 -4 -4 -4 -4 -4 -4 -4 -4 -4
-0 1 2 3 1 -1 -1 -1 -1 -0 1 1 2 3 0 -1 -1 -2 -2 -3 -3 -4 -4 -4 -4 -4 -4 -5 -4 -4 -4 -4 -4 -4 -4 -4 -4 -4 -4 -4 -5 -5 -5 -4
-0 -0 1 3 3 1 -1 -2 -2 -1 0 1 1 2 2 0 -1 -2 -3 -3 -4 -4 -4 -5 -5 -5 -5 -5 -5 -5 -5 -5 -5 -5 -5 -5 -5 -5 -5 -5 -5 -5 -5 -5
-1 -0 -1 -0 -0 -1 -1 -1 -2 -2 -0 0 1 1 1 0 -1 -3 -4 -4 -4 -5 -5 -5 -6 -6 -6 -6 -6 -6 -6 -6 -6 -6 -5 -5 -6 -6 -6 -6 -6 -6 -6 -6
-2 -2 -2 -2 -2 -2 -2 -1 -2 -2 -1 -1 -1 -1 -1 -3 -3 -4 -4 -5 -5 -5 -6 -6 -6 -6 -7 -7 -7 -6 -6 -6 -7 -6 -6 -6 -6 -6 -6 -6 -6 -6 -6 -6
-2 -3 -2 -0 -2 -2 -0 -1 -2 -2 -2 -2 -1 -0 -3 -3 -4 -4 -5 -6 -6 -6 -6 -7 -7 -7 -7 -7 -7 -7 -7 -7 -7 -7 -7 -7 -7 -7 -7 -7 -7 -7 -7 -7
-4 -3 -2 -1 -2 -1 1 -2 -2 -2 -2 -3 -3 -3 -4 -5 -5 -6 -6 -6 -7 -7 -7 -7 -7 -7 -7 -7 -7 -7 -8 -8 -8 -8 -8 -8 -8 -8 -8 -7 -7 -7 -7 -7
-4 -3 -2 -2 -1 -0 0 -3 -4 -3 -3 -4 -4 -5 -5 -6 -6 -5 -6 -7 -7 -7 -7 -7 -7 -7 -7 -8 -8 -8 -8 -8 -8 -8 -8 -8 -8 -8 -8 -8 -8 -8 -8 -8
-5 -4 -3 -3 -2 -1 0 -4 -5 -4 -2 -5 -6 -6 -6 -7 -4 -4 -7 -7 -8 -8 -8 -8 -8 -8 -8 -8 -8 -9 -9 -9 -9 -9 -9 -9 -9 -9 -9 -9 -9 -9 -9 -9
-5 -4 -4 -3 -2 -1 -3 -6 -5 -2 -2 -6 -6 -7 -7 -7 -6 -7 -8 -8 -8 -8 -8 -9 -9 -9 -9 -9 -9 -9 -9 -9 -9 -9 -9 -9 -9 -10 -10 -10 -10 -10 -9 -9
-4 -4 -4 -4 -3 -2 -5 -6 -4 -4 -6 -7 -7 -7 -8 -8 -9 -9 -9 -9 -9 -9 -9 -9 -9 -9 -9 -10 -10 -10 -10 -10 -10 -10 -10 -10 -10 -10 -10 -10 -10 -10 -10 -10
-4 -4 -3 -4 -2 -5 -6 -6 -6 -7 -7 -8 -8 -8 -9 -9 -9 -10 -10 -10 -10 -10 -10 -10 -10 -10 -10 -10 -10 -10 -10 -10 -10 -10 -10 -10 -10 -11 -11 -11 -11 -11 -11 -11
-5 -7 -6 -6 -5 -6 -7 -7 -7 -7 -8 -8 -8 -9 -9 -10 -10 -10 -10 -10 -10 -10 -10 -10 -10 -11 -10 -11 -11 -11 -11 -11 -11 -11 -11 -11 -11 -11 -11 -11 -11 -11 -11 -11
-5 -7 -7 -6 -6 -7 -7 -8 -8 -8 -8 -9 -9 -9 -10 -10 -10 -10 -10 -10 -10 -11 -11 -11 -11 -11 -11 -11 -11 -11 -11 -11 -11 -11 -11 -11 -12 -12 -12 -12 -12 -12 -11 -11
-8 -8 -6 -5 -6 -7 -7 -8 -8 -9 -9 -9 -10 -10 -10 -10 -10 -10 -11 -11 -11 -11 -11 -11 -11 -11 -11 -11 -11 -12 -12 -12 -12 -12 -12 -12 -12 -12 -12 -12 -12 -12 -12 -11
Wind_Speed
2 1 2 3 4 4 4 6 9 7 3 4 9 12 11 7 6 7 6 5 5 5 4 3 3 2 2 2 2 3 2 2 1 1 1 1 1 1 2 2 3 3 3 3
2 3 3 2 2 3 5 7 9 6 2 4 8 12 11 6 5 6 6 5 5 5 4 3 3 2 3 3 3 3 3 2 2 1 1 1 2 2 2 2 3 3 4 3
3 0 0 1 1 4 6 8 8 7 6 4 6 9 6 2 2 2 3 4 4 4 4 4 3 3 3 3 3 3 3 3 2 1 0 0 1 2 2 2 3 4 4 3
2 1 1 2 3 5 7 4 6 6 6 5 3 8 6 3 3 2 2 2 3 3 3 3 3 2 3 3 2 2 2 2 2 2 2 2 2 2 3 3 4 5 5 4
2 1 1 3 4 4 4 2 4 5 6 7 5 7 6 2 4 4 3 3 3 3 3 3 2 2 2 2 1 1 1 1 1 1 2 2 2 3 3 3 4 5 5 4
1 0 1 2 2 1 1 1 1 3 4 7 7 8 7 3 3 4 3 3 3 2 2 2 2 1 1 1 1 1 1 1 1 1 2 2 3 3 4 4 5 4 4 4
2 1 0 0 1 1 2 3 3 4 4 6 2 6 6 2 2 3 3 3 3 2 2 2 1 2 1 1 1 1 1 1 2 2 2 3 3 4 5 5 5 5 4 4
3 3 2 1 2 2 3 4 4 5 6 5 3 6 3 0 1 2 2 2 3 3 2 2 2 2 2 2 2 2 2 2 2 3 3 3 4 4 4 5 5 5 5 5
3 3 1 1 1 2 2 4 3 3 5 7 6 5 6 2 2 2 2 3 3 3 3 3 3 2 2 2 2 2 2 3 3 3 4 4 4 4 5 5 5 5 5 5
2 4 1 1 1 0 2 2 2 4 5 8 7 7 5 3 3 3 3 4 4 4 3 3 3 3 2 2 2 2 2 3 3 3 3 4 4 5 5 5 5 6 6 6
2 3 2 2 4 4 3 3 4 4 4 6 8 6 1 3 2 3 4 4 4 4 4 3 3 3 2 3 2 2 2 3 3 4 4 4 4 5 5 5 6 6 6 6
1 3 5 4 0 2 4 4 5 5 5 5 7 7 1 1 1 2 4 5 5 4 4 4 4 3 3 3 3 3 3 3 4 4 4 4 4 5 5 5 6 6 6 6
2 2 4 3 2 2 3 4 5 4 4 6 8 8 2 1 3 4 5 6 5 4 4 4 3 3 4 4 4 4 4 4 4 4 4 4 4 5 5 6 6 6 6 6
2 4 7 10 7 3 5 6 6 7 6 8 12 14 10 8 8 8 8 7 6 5 5 4 4 4 4 4 4 4 5 4 4 4 4 5 5 5 6 6 6 7 7 7
2 5 7 10 10 8 10 11 10 12 12 12 14 14 15 10 9 8 7 7 7 6 6 6 5 5 5 5 5 5 5 5 4 4 5 5 5 5 5 6 6 7 7 7
2 4 5 8 8 8 12 14 13 14 14 16 17 17 10 7 6 7 7 6 7 8 7 7 7 6 6 6 5 5 5 5 5 5 5 5 5 5 6 6 6 7 7 7
3 3 4 7 6 7 10 10 11 9 10 11 13 10 5 7 8 8 8 7 7 8 8 8 7 7 6 6 6 6 5 5 4 5 5 5 5 6 6 6 7 7 7 7
5 4 4 5 5 8 4 0 6 9 10 9 8 7 7 8 9 9 7 6 7 8 9 8 7 7 6 6 6 5 5 4 4 5 5 5 5 6 6 6 7 7 7 7
5 5 3 3 6 10 6 2 2 5 6 4 6 7 7 7 8 6 2 3 7 8 8 7 7 6 6 5 5 4 5 5 5 5 5 5 6 6 6 7 7 7 7 8
0 3 4 4 6 7 3 1 1 2 5 1 3 5 6 7 7 6 5 7 8 8 6 6 6 5 5 5 4 4 5 5 5 6 6 6 6 7 7 7 8 7 7 8
2 3 5 8 8 7 2 1 1 3 4 3 4 5 6 6 7 8 9 9 8 7 7 6 5 5 5 4 4 5 5 6 6 6 6 6 6 7 7 7 7 7 7 8
5 4 5 5 6 6 2 1 3 4 4 5 6 6 6 8 8 8 9 9 8 7 7 6 5 5 5 4 4 5 6 6 6 6 6 6 6 6 6 7 7 7 7 8
5 4 3 6 5 3 1 2 2 3 5 6 7 7 6 7 8 9 9 9 8 7 6 5 5 5 5 4 4 5 6 5 5 6 6 6 6 6 6 6 7 6 6 6
3 2 3 5 7 5 4 4 5 5 6 6 6 6 7 8 8 9 8 8 7 7 6 5 5 5 6 5 5 5 6 5 5 6 6 6 6 6 6 5 6 6 6 6
3 3 4 6 6 6 4 5 5 5 5 6 7 7 7 7 8 8 8 8 7 7 6 6 5 6 6 6 6 5 5 5 5 6 6 6 6 6 5 6 6 6 7 7
3 4 4 6 4 4 7 6 5 6 7 7 7 8 8 7 8 8 8 7 7 7 6 6 6 6 6 6 6 6 5 5 5 5 6 5 5 5 5 5 6 8 9 11
Wind_Direction
42 153 221 234 233 260 257 259 271 278 302 275 264 271 276 275 255 256 256 253 253 258 261 249 236 231 230 240 237 233 204 198 184 192 229 255 303 309 329 343 344 330 324 326
162 241 259 267 233 234 245 260 274 280 291 280 282 278 276 269 258 262 261 260 261 268 263 257 248 233 234 234 244 234 210 203 200 219 247 266 275 277 305 321 326 327 319 317
213 337 54 193 219 240 250 255 271 280 298 255 287 273 245 240 264 288 281 273 270 264 258 249 249 243 243 240 244 227 219 210 210 213 228 307 302 293 305 311 315 318 314 316
230 284 236 243 259 258 265 267 266 269 276 269 281 281 262 253 272 282 290 287 280 274 264 253 248 252 244 242 240 223 213 208 208 204 209 224 252 273 287 300 305 311 305 305
218 203 237 252 273 249 266 302 262 258 255 266 250 258 268 254 268 279 283 291 294 293 275 262 258 259 258 247 220 208 200 211 213 216 220 232 255 276 288 297 298 303 302 299
251 243 289 287 325 271 225 224 225 223 236 254 248 244 269 246 261 282 294 319 322 325 315 289 278 276 269 254 222 213 216 255 260 247 250 256 266 282 290 296 296 299 299 299
260 194 147 266 240 162 225 243 262 245 234 251 219 242 260 283 275 276 285 313 338 341 320 304 314 308 305 270 244 237 239 271 286 272 267 275 277 280 283 290 294 298 295 294
270 252 180 209 245 236 225 241 248 266 270 277 226 241 259 225 286 302 305 316 331 323 305 293 291 287 282 272 263 247 253 272 288 291 286 281 283 282 282 287 289 289 286 286
251 258 66 333 323 243 207 220 283 270 279 274 257 262 274 222 273 295 311 325 324 316 306 292 288 284 273 263 267 261 266 282 289 293 298 292 286 284 286 290 290 288 285 285
249 267 258 328 211 173 291 199 198 225 261 267 265 256 258 244 269 289 303 306 304 300 302 302 297 293 290 279 280 288 282 287 290 294 295 295 293 288 288 287 286 287 288 285
231 242 255 226 219 230 193 201 227 237 257 264 273 268 235 229 257 272 289 301 304 306 302 297 295 293 296 297 297 296 291 293 298 297 296 296 299 299 292 287 288 290 290 286
219 244 258 246 260 311 238 231 216 239 247 245 266 272 81 235 277 286 300 309 310 307 299 297 300 302 300 297 301 296 291 290 292 296 295 296 300 302 297 292 294 296 294 283
177 215 271 254 209 189 233 233 232 245 260 244 253 265 120 335 310 308 306 311 312 311 309 308 307 303 301 299 298 293 288 293 296 294 294 295 298 300 300 299 298 297 295 291
215 229 244 263 289 242 247 246 231 220 241 254 251 267 275 286 298 306 310 310 309 304 307 309 306 303 299 299 297 295 295 297 297 293 290 290 294 295 296 299 300 297 294 293
222 247 252 266 274 266 259 255 236 228 239 251 265 269 280 291 295 298 303 306 306 304 306 305 302 302 301 300 301 300 301 303 299 292 289 290 293 296 297 297 298 298 295 291
223 248 264 269 268 265 266 259 246 242 247 251 264 272 282 294 294 293 299 301 300 303 306 304 302 302 298 297 301 302 300 300 296 290 290 294 295 297 297 297 298 298 298 294
205 214 254 270 281 280 265 247 228 233 235 239 253 270 297 299 301 301 302 295 293 299 306 304 301 297 295 295 298 299 297 295 290 288 290 292 293 294 296 298 297 296 296 295
209 222 245 275 284 256 273 282 229 242 251 239 251 276 288 293 301 295 285 284 298 305 304 301 300 299 299 299 300 300 296 291 289 290 291 292 293 293 296 296 295 295 294 291
216 210 234 250 265 274 279 253 213 237 262 241 253 279 300 310 303 291 275 291 299 301 300 298 296 294 293 293 296 296 293 291 289 291 293 295 293 291 293 293 293 294 292 289
140 212 229 241 256 259 294 22 308 231 257 207 271 286 304 310 297 301 332 318 310 308 307 305 303 298 291 292 293 285 286 289 290 294 297 296 292 289 288 290 292 292 290 287
197 213 230 246 255 263 332 45 164 246 306 336 300 293 290 287 290 302 308 307 306 306 306 304 299 293 288 289 284 280 284 285 293 298 298 295 292 288 287 289 289 290 290 289
206 210 219 224 241 263 92 140 234 296 325 312 306 302 295 294 297 300 303 304 305 305 303 300 297 294 293 286 278 280 284 294 300 299 297 293 292 291 289 288 289 288 288 288
222 226 227 218 245 317 220 251 288 312 300 302 302 301 295 293 294 300 300 301 301 300 299 297 292 292 294 289 280 279 290 299 300 297 296 295 293 289 287 285 286 288 286 285
245 260 244 262 273 287 279 285 301 305 300 299 302 300 294 291 293 298 299 299 299 297 296 295 292 289 292 295 290 284 289 294 293 293 295 294 291 290 287 282 281 283 284 285
265 213 248 262 284 301 281 278 300 312 314 311 309 303 295 293 294 295 294 295 294 294 295 292 287 286 290 294 292 290 290 290 289 291 290 291 288 288 289 287 284 283 279 282
232 223 238 266 274 273 289 297 309 312 312 311 311 309 306 298 292 294 293 293 292 290 292 290 288 288 289 289 289 290 288 285 284 288 290 290 289 291 291 293 294 287 285 289
Height
1516 1516 1515 1516 1517 1516 1514 1513 1510 1513 1519 1519 1514 1511 1510 1512 1512 1512 1511 1511 1511 1511 1511 1511 1511 1511 1511 1512 1512 1512 1513 1513 1514 1515 1515 1516 1516 1516 1517 1517 1516 1516 1515 1515
1516 1517 1520 1521 1520 1519 1516 1514 1510 1513 1520 1519 1513 1508 1506 1508 1509 1509 1509 1509 1509 1509 1508 1508 1508 1508 1508 1508 1509 1509 1509 1510 1511 1512 1512 1513 1513 1513 1513 1513 1513 1513 1512 1512
1514 1520 1522 1521 1520 1518 1516 1514 1512 1515 1517 1518 1515 1501 1501 1505 1507 1507 1507 1507 1507 1506 1506 1505 1505 1505 1505 1505 1505 1506 1506 1507 1508 1509 1509 1510 1510 1510 1510 1509 1509 1509 1509 1508
1519 1523 1523 1520 1519 1518 1512 1517 1518 1518 1514 1506 1513 1493 1493 1501 1503 1504 1505 1504 1504 1504 1503 1503 1502 1502 1502 1503 1502 1502 1503 1504 1505 1505 1506 1506 1506 1506 1506 1505 1505 1505 1505 1505
1518 1523 1522 1520 1520 1520 1517 1521 1520 1518 1515 1511 1510 1504 1488 1499 1499 1500 1502 1502 1502 1501 1501 1500 1500 1500 1500 1500 1500 1500 1501 1501 1502 1502 1503 1503 1503 1503 1502 1501 1501 1501 1501 1500
1521 1524 1523 1522 1523 1522 1522 1521 1520 1518 1513 1505 1503 1501 1485 1492 1497 1498 1501 1501 1500 1500 1499 1499 1499 1499 1498 1498 1497 1498 1498 1498 1499 1500 1500 1500 1500 1499 1499 1498 1497 1497 1496 1496
1518 1521 1524 1524 1521 1522 1521 1515 1505 1501 1498 1490 1508 1503 1491 1496 1499 1500 1500 1500 1499 1498 1498 1497 1496 1496 1495 1495 1495 1495 1496 1496 1496 1497 1497 1497 1497 1496 1495 1494 1493 1492 1492 1491
1513 1512 1521 1523 1521 1519 1519 1515 1505 1497 1487 1484 1506 1497 1492 1499 1500 1500 1500 1499 1498 1497 1496 1495 1494 1494 1493 1493 1493 1493 1493 1493 1494 1494 1494 1493 1493 1492 1491 1490 1489 1488 1487 1487
1513 1513 1523 1524 1523 1522 1518 1515 1516 1511 1509 1503 1490 1495 1495 1497 1498 1498 1498 1497 1496 1496 1494 1493 1492 1492 1491 1491 1490 1490 1490 1491 1491 1491 1490 1490 1489 1488 1487 1486 1485 1484 1483 1483
1519 1519 1521 1524 1524 1524 1522 1518 1516 1510 1501 1489 1482 1488 1486 1492 1494 1495 1496 1495 1495 1494 1493 1492 1491 1490 1489 1489 1488 1488 1488 1488 1488 1487 1487 1486 1485 1484 1483 1482 1481 1480 1479 1478
1522 1520 1519 1522 1521 1517 1522 1521 1516 1510 1507 1495 1484 1481 1488 1491 1493 1495 1495 1495 1494 1493 1492 1491 1490 1488 1488 1487 1486 1485 1485 1485 1485 1484 1483 1483 1482 1481 1479 1478 1477 1476 1474 1474
1523 1520 1514 1516 1522 1523 1520 1517 1516 1509 1506 1508 1496 1488 1492 1493 1494 1494 1494 1493 1492 1492 1490 1489 1488 1486 1485 1484 1483 1482 1482 1481 1481 1481 1480 1479 1478 1477 1475 1474 1473 1471 1470 1469
1523 1522 1513 1507 1518 1524 1521 1519 1519 1517 1512 1506 1499 1488 1493 1494 1494 1494 1493 1492 1491 1490 1488 1487 1485 1484 1483 1481 1480 1479 1478 1478 1477 1477 1476 1475 1474 1473 1471 1470 1469 1467 1465 1465
1521 1520 1514 1504 1501 1511 1516 1517 1518 1516 1509 1501 1495 1486 1488 1491 1492 1492 1492 1490 1489 1488 1486 1485 1483 1482 1480 1478 1477 1476 1475 1474 1473 1473 1472 1471 1470 1469 1468 1466 1465 1463 1461 1460
1520 1516 1515 1512 1511 1513 1511 1510 1512 1512 1504 1499 1489 1489 1486 1489 1491 1491 1490 1488 1487 1485 1484 1482 1481 1479 1477 1475 1474 1473 1472 1471 1470 1469 1468 1467 1466 1465 1464 1462 1461 1459 1457 1456
1519 1518 1517 1513 1511 1511 1508 1503 1504 1504 1502 1497 1493 1489 1488 1490 1490 1489 1487 1486 1484 1482 1481 1479 1477 1475 1473 1472 1470 1469 1468 1467 1466 1465 1464 1463 1462 1461 1460 1458 1456 1455 1453 1452
1517 1518 1514 1503 1509 1508 1496 1493 1497 1496 1494 1493 1488 1486 1488 1489 1487 1486 1485 1483 1482 1480 1478 1476 1474 1472 1470 1468 1467 1465 1464 1463 1462 1461 1460 1459 1458 1457 1455 1454 1452 1451 1449 1447
1516 1515 1513 1506 1506 1499 1486 1492 1491 1491 1490 1491 1489 1488 1488 1488 1486 1484 1482 1481 1479 1477 1475 1473 1471 1468 1467 1465 1464 1462 1461 1459 1458 1457 1456 1455 1454 1453 1451 1450 1448 1446 1445 1443
1513 1513 1510 1506 1498 1487 1485 1490 1492 1491 1486 1488 1488 1487 1487 1485 1483 1480 1479 1478 1477 1475 1472 1470 1467 1465 1463 1462 1460 1459 1457 1456 1454 1453 1452 1451 1450 1448 1447 1445 1443 1442 1440 1438
1514 1513 1510 1506 1497 1487 1482 1491 1490 1491 1484 1486 1486 1486 1485 1484 1479 1476 1477 1475 1473 1471 1469 1466 1464 1462 1460 1458 1457 1455 1453 1452 1451 1450 1449 1447 1446 1444 1442 1441 1439 1437 1435 1433
1511 1510 1508 1503 1495 1484 1489 1491 1491 1487 1482 1486 1485 1484 1483 1482 1480 1477 1474 1471 1469 1467 1465 1463 1460 1458 1457 1455 1453 1452 1450 1449 1448 1446 1445 1443 1442 1440 1438 1436 1434 1433 1431 1429
1503 1503 1504 1501 1496 1488 1490 1491 1490 1486 1486 1485 1483 1482 1481 1478 1476 1473 1471 1468 1465 1463 1461 1459 1457 1455 1453 1452 1450 1448 1447 1446 1444 1443 1441 1439 1438 1436 1434 1432 1430 1428 1426 1424
1501 1498 1495 1495 1490 1489 1489 1488 1487 1486 1484 1482 1481 1479 1477 1475 1472 1470 1467 1464 1462 1460 1458 1455 1453 1451 1450 1449 1447 1445 1444 1442 1441 1439 1437 1436 1434 1432 1430 1428 1426 1424 1422 1420
1498 1499 1497 1494 1488 1488 1487 1486 1485 1484 1482 1480 1478 1476 1474 1471 1469 1466 1464 1461 1459 1456 1454 1452 1450 1448 1446 1445 1444 1442 1440 1439 1437 1435 1434 1432 1430 1428 1426 1424 1422 1420 1418 1416
1495 1497 1495 1491 1488 1486 1484 1483 1482 1480 1479 1477 1475 1473 1471 1468 1465 1463 1460 1458 1456 1453 1451 1449 1447 1444 1443 1441 1440 1438 1437 1435 1433 1432 1430 1428 1426 1424 1422 1420 1418 1416 1414 1413
1493 1493 1491 1485 1485 1485 1482 1480 1479 1477 1475 1474 1472 1469 1468 1466 1462 1460 1457 1455 1452 1450 1448 1445 1443 1441 1439 1438 1436 1435 1433 1432 1430 1428 1426 1424 1422 1420 1419 1416 1414 1412 1410 1408